Change the Weather History Date:

Monday, May 27, 2013

  Actual Average (KBNA) Record (KBNA)
Temperature  
Mean Temperature 78 °F 70 °F  
Max Temperature 86 °F 81 °F 95 °F (1911)
Min Temperature 69 °F 60 °F 38 °F (1961)
Degree Days  
Heating Degree Days 0 1  
Month to date heating degree days 54  
Since 1 July heating degree days 3682  
Cooling Degree Days 12 6  
Month to date cooling degree days 106  
Year to date cooling degree days 151  
Growing Degree Days 28 (Base 50)    
Moisture  
Dew Point 66 °F    
Average Humidity 65    
Maximum Humidity 100    
Minimum Humidity 45    
Precipitation  
Precipitation 0.00 in 0.16 in 2.03 in (1973)
Month to date precipitation 4.84  
Year to date precipitation 20.64  
Snow  
Snow 0.00 in 0.00 in 0.00 in (2002)
Month to date snowfall 0.0  
Since 1 July snowfall 6.3  
Snow Depth -    
Sea Level Pressure  
Sea Level Pressure 30.10 in    
Wind  
Wind Speed 4 mph (South)    
Max Wind Speed 15 mph    
Max Gust Speed -    
Visibility 10 miles    
Events      
T = Trace of Precipitation, MM = Missing Value Source: NWS Daily Summary

Daily Weather History Graph

Daily Weather History Graph

Search for Another Location

Airport or City:

Trip Planner

Search our weather history database for the weather conditions in past years. The results will help you decide how hot, cold, wet, or windy it might be!

Date:

Astronomy

May. 27, 2013 Rise Set
Actual Time 5:36 AM CDT 7:55 PM CDT
Civil Twilight 5:07 AM CDT 8:25 PM CDT
Nautical Twilight 4:31 AM CDT 9:00 PM CDT
Astronomical Twilight 3:52 AM CDT 9:40 PM CDT
Moon 10:37 PM CDT (5/27) 8:11 AM CDT (5/27)
Length of Visible Light 15h 17m
Length of Day
14h 19m
Waning Gibbous, 91% of the Moon is Illuminated
May 27
Waning Gibbous
May 31
Last Quarter
Jun 8
New
Jun 16
First Quarter
Jun 23
Full

Hourly Weather History & Observations

Time (CDT) Temp. Heat Index Dew Point Humidity Pressure Visibility Wind Dir Wind Speed Gust Speed Precip Events Conditions
12:35 AM - - - N/A% 30.13 in 10.0 mi Calm Calm - N/A   Clear
12:55 AM - - - N/A% 30.13 in 10.0 mi SW 4.6 mph - N/A   Clear
1:15 AM - - - N/A% 30.12 in 10.0 mi Calm Calm - N/A   Clear
1:35 AM - - - N/A% 30.12 in 10.0 mi Calm Calm - N/A   Clear
1:55 AM - - - N/A% 30.12 in 10.0 mi Calm Calm - N/A   Clear
2:15 AM - - - N/A% 30.12 in 10.0 mi Calm Calm - N/A   Clear
2:35 AM - - - N/A% 30.12 in 10.0 mi Calm Calm - N/A   Clear
2:55 AM - - - N/A% 30.12 in 10.0 mi Calm Calm - N/A   Clear
3:15 AM - - - N/A% 30.12 in 10.0 mi Calm Calm - N/A   Clear
3:35 AM - - - N/A% 30.12 in 10.0 mi Calm Calm - N/A   Clear
3:55 AM - - - N/A% 30.12 in 10.0 mi Calm Calm - N/A   Clear
4:15 AM - - - N/A% 30.13 in 10.0 mi Calm Calm - N/A   Clear
4:35 AM - - - N/A% 30.13 in 10.0 mi Calm Calm - N/A   Clear
4:55 AM - - - N/A% 30.13 in 10.0 mi Calm Calm - N/A   Clear
5:15 AM - - - N/A% 30.13 in 7.0 mi Calm Calm - N/A   Clear
5:35 AM - - - N/A% 30.14 in 9.0 mi Calm Calm - N/A   Clear
5:55 AM - - - N/A% 30.14 in 10.0 mi Calm Calm - N/A   Clear
6:15 AM - - - N/A% 30.15 in 10.0 mi Calm Calm - N/A   Clear
6:35 AM - - - N/A% 30.15 in 10.0 mi Calm Calm - N/A   Clear
6:55 AM - - - N/A% 30.16 in 8.0 mi Calm Calm - N/A   Clear
7:15 AM - - - N/A% 30.16 in 10.0 mi Calm Calm - N/A   Clear
7:35 AM - - - N/A% 30.15 in 9.0 mi Calm Calm - N/A   Clear
7:55 AM - - - N/A% 30.15 in 10.0 mi Calm Calm - N/A   Clear
8:15 AM - - - N/A% 30.15 in 10.0 mi Calm Calm - N/A   Clear
8:35 AM 69.8 °F - 69.8 °F 100% 30.15 in 10.0 mi South 5.8 mph - N/A   Clear
8:55 AM 73.4 °F - 71.6 °F 94% 30.15 in 10.0 mi South 4.6 mph - N/A   Unknown
9:15 AM 73.4 °F - 69.8 °F 88% 30.14 in 10.0 mi South 4.6 mph - N/A   Unknown
9:35 AM 78.8 °F - 69.8 °F 74% 30.13 in 10.0 mi South 5.8 mph - N/A   Clear
9:55 AM 78.8 °F - 66.2 °F 65% 30.12 in 10.0 mi South 5.8 mph - N/A   Clear
10:15 AM 80.6 °F 82.7 °F 66.2 °F 61% 30.12 in 10.0 mi South 6.9 mph - N/A   Clear
10:35 AM 82.4 °F 83.9 °F 64.4 °F 54% 30.12 in 10.0 mi South 8.1 mph - N/A   Clear
10:55 AM 82.4 °F 83.9 °F 64.4 °F 54% 30.12 in 10.0 mi SSW 10.4 mph - N/A   Clear
11:15 AM 82.4 °F 83.9 °F 64.4 °F 54% 30.12 in 10.0 mi South 9.2 mph - N/A   Clear
11:35 AM 82.4 °F 83.4 °F 62.6 °F 51% 30.12 in 10.0 mi South 9.2 mph - N/A   Clear
11:55 AM 84.2 °F 85.0 °F 62.6 °F 48% 30.11 in 10.0 mi South 8.1 mph - N/A   Clear
12:15 PM 84.2 °F 85.6 °F 64.4 °F 51% 30.10 in 10.0 mi South 10.4 mph - N/A   Clear
12:35 PM 84.2 °F 85.0 °F 62.6 °F 48% 30.10 in 10.0 mi South 15.0 mph - N/A   Partly Cloudy
12:55 PM 84.2 °F 85.0 °F 62.6 °F 48% 30.10 in 10.0 mi South 12.7 mph - N/A   Partly Cloudy
1:15 PM 84.2 °F 85.0 °F 62.6 °F 48% 30.09 in 10.0 mi SSW 15.0 mph - N/A   Scattered Clouds
1:35 PM 84.2 °F 85.0 °F 62.6 °F 48% 30.09 in 10.0 mi SSW 15.0 mph - N/A   Scattered Clouds
1:55 PM 84.2 °F 85.0 °F 62.6 °F 48% 30.09 in 10.0 mi SW 11.5 mph - N/A   Scattered Clouds
2:15 PM 86.0 °F 86.6 °F 62.6 °F 45% 30.09 in 10.0 mi SSW 12.7 mph - N/A   Partly Cloudy
2:35 PM 84.2 °F 85.0 °F 62.6 °F 48% 30.08 in 10.0 mi SSW 13.8 mph - N/A   Partly Cloudy
2:55 PM 84.2 °F 85.0 °F 62.6 °F 48% 30.08 in 10.0 mi SSW 11.5 mph - N/A   Clear
3:15 PM 84.2 °F 85.0 °F 62.6 °F 48% 30.07 in 10.0 mi SSW 10.4 mph - N/A   Clear
3:35 PM 84.2 °F 85.0 °F 62.6 °F 48% 30.07 in 10.0 mi SW 15.0 mph - N/A   Clear
3:55 PM 84.2 °F 85.0 °F 62.6 °F 48% 30.07 in 10.0 mi SSW 11.5 mph - N/A   Clear
4:15 PM 84.2 °F 85.0 °F 62.6 °F 48% 30.07 in 10.0 mi SW 11.5 mph - N/A   Clear
4:35 PM 84.2 °F 85.0 °F 62.6 °F 48% 30.07 in 10.0 mi SSW 11.5 mph - N/A   Clear
4:55 PM 82.4 °F 83.4 °F 62.6 °F 51% 30.06 in 10.0 mi SSW 10.4 mph - N/A   Clear
5:15 PM 82.4 °F 83.9 °F 64.4 °F 54% 30.06 in 10.0 mi South 9.2 mph - N/A   Clear
5:35 PM 82.4 °F 83.9 °F 64.4 °F 54% 30.05 in 10.0 mi South 5.8 mph - N/A   Clear
5:55 PM 82.4 °F 83.9 °F 64.4 °F 54% 30.05 in 10.0 mi South 6.9 mph - N/A   Clear
6:15 PM 80.6 °F 82.3 °F 64.4 °F 58% 30.04 in 10.0 mi South 8.1 mph - N/A   Clear
6:35 PM 80.6 °F 82.3 °F 64.4 °F 58% 30.04 in 10.0 mi South 5.8 mph - N/A   Clear
6:55 PM 78.8 °F - 64.4 °F 61% 30.04 in 10.0 mi South 4.6 mph - N/A   Clear
7:15 PM 78.8 °F - 64.4 °F 61% 30.05 in 10.0 mi South 3.5 mph - N/A   Clear
7:35 PM 78.8 °F - 66.2 °F 65% 30.04 in 10.0 mi South 3.5 mph - N/A   Clear
7:55 PM 75.2 °F - 66.2 °F 73% 30.05 in 10.0 mi Calm Calm - N/A   Clear
8:15 PM 75.2 °F - 69.8 °F 83% 30.05 in 10.0 mi Calm Calm - N/A   Clear
8:35 PM 73.4 °F - 69.8 °F 88% 30.04 in 10.0 mi SSE 3.5 mph - N/A   Clear
8:55 PM 73.4 °F - 69.8 °F 88% 30.05 in 10.0 mi SSE 3.5 mph - N/A   Clear
9:15 PM 73.4 °F - 69.8 °F 88% 30.05 in 10.0 mi SSE 3.5 mph - N/A   Clear
9:35 PM 73.4 °F - 69.8 °F 88% 30.05 in 10.0 mi South 5.8 mph - N/A   Clear
9:55 PM 73.4 °F - 69.8 °F 88% 30.05 in 10.0 mi South 5.8 mph - N/A   Clear
10:15 PM 73.4 °F - 68.0 °F 83% 30.05 in 10.0 mi South 6.9 mph - N/A   Clear
10:35 PM 73.4 °F - 68.0 °F 83% 30.06 in 10.0 mi South 6.9 mph - N/A   Clear
10:55 PM 73.4 °F - 69.8 °F 88% 30.06 in 10.0 mi South 5.8 mph - N/A   Clear
11:15 PM 73.4 °F - 68.0 °F 83% 30.06 in 10.0 mi South 4.6 mph - N/A   Clear
11:35 PM 71.6 °F - 69.8 °F 94% 30.05 in 10.0 mi South 4.6 mph - N/A   Clear
11:55 PM 71.6 °F - 69.8 °F 94% 30.05 in 10.0 mi SSE 3.5 mph - N/A   Clear